Selinsgrove, PA

8:04 PM EDT on August 18, 2017 (GMT -0400)
Penn Valley

Weather History for KSEG - May, 2013

Change the Weather History Date:

Wednesday, May 1, 2013

  Actual Average (KIPT) Record (KIPT)
Temperature  
Mean Temperature 56 °F -  
Max Temperature 72 °F 67 °F 90 °F (2010)
Min Temperature 39 °F 42 °F 28 °F (1931)
Degree Days  
Heating Degree Days 10    
Growing Degree Days 6 (Base 50)    
Moisture  
Dew Point 36 °F    
Average Humidity 53    
Maximum Humidity 97    
Minimum Humidity 22    
Precipitation  
Precipitation 0.00 in - - ()
Sea Level Pressure  
Sea Level Pressure 30.39 in    
Wind  
Wind Speed 3 mph (SE)    
Max Wind Speed 9 mph    
Max Gust Speed -    
Visibility 10 miles    
Events      
Averages and records for this station are not official NWS values.
T = Trace of Precipitation, MM = Missing Value Source: NWS Daily Summary

Daily Weather History Graph

Daily Weather History Graph

Search for Another Location

Airport or City:

Trip Planner

Search our weather history database for the weather conditions in past years. The results will help you decide how hot, cold, wet, or windy it might be!

Date:

Astronomy

May. 01, 2013 Rise Set
Actual Time 6:05 AM EDT 8:04 PM EDT
Civil Twilight 5:35 AM EDT 8:33 PM EDT
Nautical Twilight 4:59 AM EDT 9:10 PM EDT
Astronomical Twilight 4:20 AM EDT 9:50 PM EDT
Moon 1:12 AM EDT (5/1) 11:41 AM EDT (5/1)
Length of Visible Light 14h 58m
Length of Day
13h 58m
Waning Gibbous, 59% of the Moon is Illuminated
May 1
Waning Gibbous
May 2
Last Quarter
May 9
New
May 18
First Quarter
May 25
Full

Hourly Weather History & Observations

Time (EDT) Temp. Windchill Dew Point Humidity Pressure Visibility Wind Dir Wind Speed Gust Speed Precip Events Conditions
12:53 AM 52.0 °F - 37.9 °F 59% 30.32 in 10.0 mi SE 3.5 mph - N/A   Clear
3:53 AM 41.0 °F - 39.0 °F 93% 30.35 in 10.0 mi Calm Calm - N/A   Clear
4:53 AM 39.9 °F - 39.0 °F 97% 30.36 in 10.0 mi Calm Calm - N/A   Clear
5:53 AM 39.0 °F 36.8 °F 37.0 °F 93% 30.37 in 10.0 mi NW 3.5 mph - N/A   Clear
6:53 AM 39.9 °F - 39.0 °F 97% 30.40 in 10.0 mi Calm Calm - N/A   Clear
7:53 AM 48.0 °F - 41.0 °F 77% 30.43 in 10.0 mi Calm Calm - N/A   Clear
8:53 AM 55.0 °F - 35.1 °F 47% 30.43 in 10.0 mi NE 3.5 mph - N/A   Clear
9:53 AM 57.9 °F - 34.0 °F 41% 30.42 in 10.0 mi Calm Calm - N/A   Clear
10:53 AM 62.1 °F - 32.0 °F 32% 30.42 in 10.0 mi Calm Calm - N/A   Clear
11:53 AM 66.0 °F - 28.0 °F 24% 30.41 in 10.0 mi East 3.5 mph - N/A   Clear
12:53 PM 66.9 °F - 28.0 °F 23% 30.40 in 10.0 mi Variable 4.6 mph - N/A   Clear
2:53 PM 71.1 °F - 35.1 °F 27% 30.36 in 10.0 mi SSE 9.2 mph - N/A   Clear
3:53 PM 71.1 °F - 33.1 °F 25% 30.36 in 10.0 mi SSE 5.8 mph - N/A   Clear
4:53 PM 72.0 °F - 30.9 °F 22% 30.36 in 10.0 mi SE 8.1 mph - N/A   Clear
5:53 PM 70.0 °F - 34.0 °F 27% 30.37 in 10.0 mi SSE 4.6 mph - N/A   Clear
7:53 PM 64.0 °F - 34.0 °F 33% 30.38 in 10.0 mi South 5.8 mph - N/A   Clear
8:53 PM 55.9 °F - 37.9 °F 51% 30.40 in 10.0 mi Calm Calm - N/A   Clear
9:53 PM 53.1 °F - 41.0 °F 64% 30.43 in 10.0 mi SSE 3.5 mph - N/A   Clear
10:53 PM 57.9 °F - 37.9 °F 47% 30.44 in 10.0 mi SSE 3.5 mph - N/A   Clear
11:53 PM 51.1 °F - 42.1 °F 71% 30.43 in 10.0 mi Calm Calm - N/A   Clear